Webster City
Saturday 10:15 PM
Temperature34° (46°/21°)
Dew Point28°
Feels Like30°
Relative Humidity80
%
Visibility10
mi
Pressure1020.0
mb
Wind DirectionENE
70°
Wind Speed5
mph
Precipitation Today0.01

Last 30 Observations

Time PresWx Temp DP Feels RH% Vsby Pressure Ceiling Direction Speed 1h Precip
10:15 PM 10
mi
0.00"
9:55 PM 34° 28° 31°80
%
10
mi
1020.3
mb
ENE
70°
3
mph
0.00"
9:35 PM 34° 28° 29°80
%
10
mi
1020.3
mb
E
100°
5
mph
0.00"
9:15 PM 37° 28° 34°70
%
10
mi
1020.3
mb
E
100°
5
mph
0.00"
8:55 PM 37° 28° 34°70
%
10
mi
1020.3
mb
E
90°
5
mph
0.00"
8:35 PM 37° 30° 34°75
%
10
mi
1020.3
mb
E
90°
5
mph
0.00"
8:15 PM 39° 30° 36°70
%
10
mi
1020.3
mb
E
90°
5
mph
0.00"
7:55 PM 39° 30° 35°70
%
10
mi
1020.0
mb
E
90°
6
mph
0.00"
7:35 PM 43° 30° 40°61
%
10
mi
1020.3
mb
ESE
110°
5
mph
0.00"
7:15 PM 45° 30° 42°57
%
10
mi
1020.0
mb
E
100°
5
mph
0.00"
6:55 PM 45° 30° 42°57
%
10
mi
1020.3
mb
ESE
120°
5
mph
0.00"
6:35 PM 46° 28° 43°49
%
10
mi
1020.3
mb
E
90°
7
mph
0.00"
6:15 PM 46° 28° 43°49
%
10
mi
1020.0
mb
ESE
110°
7
mph
0.00"
5:55 PM 46° 28° 43°49
%
10
mi
1020.0
mb
E
80°
7
mph
0.00"
5:35 PM 46° 28° 43°49
%
10
mi
1020.0
mb
ENE
70°
7
mph
0.00"
5:15 PM 46° 28° 43°49
%
10
mi
1020.0
mb
E
80°
7
mph
0.00"
4:55 PM 46° 28° 43°49
%
10
mi
1020.3
mb
Variable 6
mph
0.00"
4:35 PM 46° 28° 43°49
%
10
mi
1020.3
mb
Variable 7
mph
0.00"
4:15 PM 46° 27° 43°46
%
10
mi
1020.7
mb
ENE
60°
6
mph
0.00"
3:55 PM 46° 28° 42°49
%
10
mi
1020.7
mb
ENE
60°
9
mph
0.00"
3:35 PM 45° 27° 49
%
10
mi
1021.0
mb
Calm 0.00"
3:15 PM 45° 27° 41°49
%
10
mi
1021.3
mb
Variable 6
mph
0.00"
2:55 PM 45° 27° 41°49
%
10
mi
1021.7
mb
NE
50°
6
mph
0.00"
2:35 PM 43° 28° 39°57
%
10
mi
1022.0
mb
E
100°
7
mph
0.00"
2:15 PM 41° 25° 36°52
%
10
mi
1022.4
mb
12,000
ft
NE
40°
8
mph
0.00"
1:55 PM 41° 27° 35°56
%
10
mi
1022.7
mb
NNE
30°
9
mph
0.00"
1:35 PM 39° 27° 34°60
%
10
mi
1023.0
mb
NE
40°
7
mph
0.00"
1:15 PM 37° 27° 35°65
%
10
mi
1023.4
mb
Variable 3
mph
0.00"
12:55 PM 37° 27° 30°65
%
10
mi
1023.7
mb
NNE
20°
10
mph
Trace
12:35 PM 36° 28° 29°75
%
10
mi
1023.7
mb
N
10°
8
mph
0.00"